Time,TemperatureF,DewpointF,PressureIn,WindDirection,WindDirectionDegrees,WindSpeedMPH,WindSpeedGustMPH,Humidity,HourlyPrecipIn,Conditions,Clouds,dailyrainin,SoftwareType,DateUTC
2013-06-24 00:00:00,73.0,64.2,30.35,SW,225,0.0,0.0,74,0.00,,,0.00,WUHU216HW,2013-06-24 04:00:00,
2013-06-24 00:01:00,73.0,64.2,30.35,SW,225,0.0,0.0,74,0.00,,,0.00,WUHU216HW,2013-06-24 04:01:00,
2013-06-24 00:06:00,72.8,64.4,30.36,SW,225,0.0,0.0,75,0.00,,,0.00,WUHU216HW,2013-06-24 04:06:00,
2013-06-24 00:11:00,73.0,64.6,30.36,SW,225,0.0,0.0,75,0.00,,,0.00,WUHU216HW,2013-06-24 04:11:00,
2013-06-24 00:16:00,73.0,64.6,30.36,SW,225,0.0,0.0,75,0.00,,,0.00,WUHU216HW,2013-06-24 04:16:00,
2013-06-24 00:21:00,73.0,64.2,30.36,SW,225,0.0,0.0,74,0.00,,,0.00,WUHU216HW,2013-06-24 04:21:00,
2013-06-24 00:26:00,72.5,64.1,30.36,SW,225,0.0,0.0,75,0.00,,,0.00,WUHU216HW,2013-06-24 04:26:00,
2013-06-24 00:31:00,72.3,63.9,30.36,SW,225,0.0,0.0,75,0.00,,,0.00,WUHU216HW,2013-06-24 04:31:00,
2013-06-24 00:36:00,72.3,63.9,30.36,SW,225,0.0,0.0,75,0.00,,,0.00,WUHU216HW,2013-06-24 04:36:00,
2013-06-24 00:41:00,72.1,63.7,30.36,SW,225,0.0,0.0,75,0.00,,,0.00,WUHU216HW,2013-06-24 04:41:00,
2013-06-24 00:46:00,71.9,63.5,30.36,SW,225,0.0,0.0,75,0.00,,,0.00,WUHU216HW,2013-06-24 04:46:00,
2013-06-24 00:51:00,71.7,63.4,30.36,SW,225,0.0,0.0,75,0.00,,,0.00,WUHU216HW,2013-06-24 04:51:00,
2013-06-24 00:56:00,71.4,63.4,30.36,SW,225,0.0,0.0,76,0.00,,,0.00,WUHU216HW,2013-06-24 04:56:00,
2013-06-24 01:01:00,71.4,63.4,30.36,SW,225,0.0,0.0,76,0.00,,,0.00,WUHU216HW,2013-06-24 05:01:00,
2013-06-24 01:06:00,71.4,63.4,30.36,SW,225,0.0,0.0,76,0.00,,,0.00,WUHU216HW,2013-06-24 05:06:00,
2013-06-24 01:11:00,71.2,63.2,30.35,SW,225,0.0,0.0,76,0.00,,,0.00,WUHU216HW,2013-06-24 05:11:00,
2013-06-24 01:16:00,70.8,62.8,30.36,SW,225,0.0,0.0,76,0.00,,,0.00,WUHU216HW,2013-06-24 05:16:00,
2013-06-24 01:21:00,70.8,62.8,30.35,SW,225,0.0,0.0,76,0.00,,,0.00,WUHU216HW,2013-06-24 05:21:00,
2013-06-24 01:26:00,70.5,62.9,30.35,SW,225,0.0,0.0,77,0.00,,,0.00,WUHU216HW,2013-06-24 05:26:00,
2013-06-24 01:31:00,70.5,63.2,30.35,SW,225,0.0,0.0,78,0.00,,,0.00,WUHU216HW,2013-06-24 05:31:00,
2013-06-24 01:36:00,70.5,63.2,30.34,SW,225,0.0,0.0,78,0.00,,,0.00,WUHU216HW,2013-06-24 05:36:00,
2013-06-24 01:41:00,70.5,63.2,30.35,SW,225,0.0,0.0,78,0.00,,,0.00,WUHU216HW,2013-06-24 05:41:00,
2013-06-24 01:46:00,70.5,63.2,30.35,SW,225,0.0,0.0,78,0.00,,,0.00,WUHU216HW,2013-06-24 05:46:00,
2013-06-24 01:51:00,70.7,63.8,30.34,SW,225,0.0,0.0,79,0.00,,,0.00,WUHU216HW,2013-06-24 05:51:00,
2013-06-24 01:56:00,71.0,64.2,30.35,SW,225,0.0,0.0,79,0.00,,,0.00,WUHU216HW,2013-06-24 05:56:00,
2013-06-24 02:02:00,71.4,64.5,30.34,SW,225,0.0,0.0,79,0.00,,,0.00,WUHU216HW,2013-06-24 06:02:00,
2013-06-24 02:07:00,71.4,64.5,30.34,SW,225,0.0,0.0,79,0.00,,,0.00,WUHU216HW,2013-06-24 06:07:00,
2013-06-24 02:12:00,71.7,64.9,30.35,SW,225,0.0,1.1,79,0.00,,,0.00,WUHU216HW,2013-06-24 06:12:00,
2013-06-24 02:17:00,72.1,65.2,30.35,SW,225,0.0,1.1,79,0.00,,,0.00,WUHU216HW,2013-06-24 06:17:00,
2013-06-24 02:22:00,72.3,65.0,30.35,SW,225,0.8,0.8,78,0.00,,,0.00,WUHU216HW,2013-06-24 06:22:00,
2013-06-24 02:27:00,72.3,65.0,30.35,SW,225,0.0,0.8,78,0.00,,,0.00,WUHU216HW,2013-06-24 06:27:00,
2013-06-24 02:32:00,72.5,65.2,30.35,SW,225,0.0,0.8,78,0.00,,,0.00,WUHU216HW,2013-06-24 06:32:00,
2013-06-24 02:37:00,72.5,65.2,30.35,SW,225,0.0,0.0,78,0.00,,,0.00,WUHU216HW,2013-06-24 06:37:00,
2013-06-24 02:43:00,72.5,65.2,30.35,SW,225,0.0,0.0,78,0.00,,,0.00,WUHU216HW,2013-06-24 06:43:00,
2013-06-24 02:48:00,72.5,65.2,30.35,SW,225,0.0,0.0,78,0.00,,,0.00,WUHU216HW,2013-06-24 06:48:00,
2013-06-24 02:53:00,72.3,65.0,30.35,SW,225,0.0,0.0,78,0.00,,,0.00,WUHU216HW,2013-06-24 06:53:00,
2013-06-24 02:58:00,72.3,65.0,30.36,SW,225,0.0,0.0,78,0.00,,,0.00,WUHU216HW,2013-06-24 06:58:00,
2013-06-24 03:03:00,72.3,65.0,30.35,SW,225,0.0,0.0,78,0.00,,,0.00,WUHU216HW,2013-06-24 07:03:00,
2013-06-24 03:08:00,72.3,65.0,30.36,SW,225,0.0,0.0,78,0.00,,,0.00,WUHU216HW,2013-06-24 07:08:00,
2013-06-24 03:13:00,72.1,64.9,30.36,SW,225,0.0,0.0,78,0.00,,,0.00,WUHU216HW,2013-06-24 07:13:00,
2013-06-24 03:18:00,72.1,65.2,30.36,WSW,248,0.0,0.0,79,0.00,,,0.00,WUHU216HW,2013-06-24 07:18:00,
2013-06-24 03:23:00,72.1,65.2,30.36,WSW,248,0.0,0.2,79,0.00,,,0.00,WUHU216HW,2013-06-24 07:23:00,
2013-06-24 03:28:00,72.1,65.2,30.37,SW,225,1.1,1.1,79,0.00,,,0.00,WUHU216HW,2013-06-24 07:28:00,
2013-06-24 03:33:00,72.1,65.2,30.36,WSW,248,0.0,1.1,79,0.00,,,0.00,WUHU216HW,2013-06-24 07:33:00,
2013-06-24 03:38:00,72.1,65.2,30.36,SW,225,0.0,0.0,79,0.00,,,0.00,WUHU216HW,2013-06-24 07:38:00,
2013-06-24 03:44:00,72.1,65.2,30.36,SW,225,0.0,0.0,79,0.00,,,0.00,WUHU216HW,2013-06-24 07:44:00,
2013-06-24 03:49:00,72.1,65.2,30.36,SW,225,0.0,0.0,79,0.00,,,0.00,WUHU216HW,2013-06-24 07:49:00,
2013-06-24 03:54:00,72.1,65.2,30.36,SW,225,0.0,0.0,79,0.00,,,0.00,WUHU216HW,2013-06-24 07:54:00,
2013-06-24 03:59:00,72.1,65.2,30.36,SW,225,0.0,0.0,79,0.00,,,0.00,WUHU216HW,2013-06-24 07:59:00,
2013-06-24 04:04:00,72.1,65.2,30.36,SW,225,0.0,0.0,79,0.00,,,0.00,WUHU216HW,2013-06-24 08:04:00,
2013-06-24 04:09:00,72.1,65.2,30.36,SW,225,0.0,0.0,79,0.00,,,0.00,WUHU216HW,2013-06-24 08:09:00,
2013-06-24 04:14:00,72.1,65.2,30.36,SW,225,0.0,0.0,79,0.00,,,0.00,WUHU216HW,2013-06-24 08:14:00,
2013-06-24 04:19:00,71.9,65.1,30.36,SW,225,0.0,0.0,79,0.00,,,0.00,WUHU216HW,2013-06-24 08:19:00,
2013-06-24 04:24:00,71.9,65.1,30.36,SW,225,0.0,0.0,79,0.00,,,0.00,WUHU216HW,2013-06-24 08:24:00,
2013-06-24 04:30:00,71.9,65.1,30.37,SW,225,0.0,0.0,79,0.00,,,0.00,WUHU216HW,2013-06-24 08:30:00,
2013-06-24 04:35:00,71.7,64.9,30.37,SW,225,0.0,0.0,79,0.00,,,0.00,WUHU216HW,2013-06-24 08:35:00,
2013-06-24 04:40:00,71.7,64.9,30.36,SW,225,0.0,0.0,79,0.00,,,0.00,WUHU216HW,2013-06-24 08:40:00,
2013-06-24 04:45:00,71.6,64.7,30.36,SW,225,0.0,0.0,79,0.00,,,0.00,WUHU216HW,2013-06-24 08:45:00,
2013-06-24 04:50:00,71.4,64.5,30.37,SW,225,0.0,0.0,79,0.00,,,0.00,WUHU216HW,2013-06-24 08:50:00,
2013-06-24 04:55:00,71.4,64.9,30.36,SW,225,0.0,0.0,80,0.00,,,0.00,WUHU216HW,2013-06-24 08:55:00,
2013-06-24 05:00:00,71.4,64.9,30.36,SW,225,0.0,0.0,80,0.00,,,0.00,WUHU216HW,2013-06-24 09:00:00,
2013-06-24 05:05:00,71.4,64.9,30.36,SW,225,0.0,0.0,80,0.00,,,0.00,WUHU216HW,2013-06-24 09:05:00,
2013-06-24 05:11:00,71.2,65.1,30.36,SW,225,0.0,0.0,81,0.00,,,0.00,WUHU216HW,2013-06-24 09:11:00,
2013-06-24 05:16:00,71.2,65.1,30.36,SW,225,0.0,0.0,81,0.00,,,0.00,WUHU216HW,2013-06-24 09:16:00,
2013-06-24 05:21:00,71.2,65.1,30.36,SW,225,0.0,0.0,81,0.00,,,0.00,WUHU216HW,2013-06-24 09:21:00,
2013-06-24 05:26:00,71.2,65.1,30.37,SW,225,0.0,0.0,81,0.00,,,0.00,WUHU216HW,2013-06-24 09:26:00,
2013-06-24 05:31:00,71.2,65.1,30.37,SW,225,0.0,0.0,81,0.00,,,0.00,WUHU216HW,2013-06-24 09:31:00,
2013-06-24 05:37:00,71.2,65.1,30.37,SW,225,0.0,0.0,81,0.00,,,0.00,WUHU216HW,2013-06-24 09:37:00,
2013-06-24 05:42:00,71.2,65.1,30.37,SW,225,0.0,0.0,81,0.00,,,0.00,WUHU216HW,2013-06-24 09:42:00,
2013-06-24 05:47:00,71.2,65.1,30.37,SW,225,0.0,0.0,81,0.00,,,0.00,WUHU216HW,2013-06-24 09:47:00,
2013-06-24 05:52:00,70.8,64.7,30.36,SW,225,0.0,0.0,81,0.00,,,0.00,WUHU216HW,2013-06-24 09:52:00,
2013-06-24 05:58:00,70.8,64.7,30.36,SW,225,0.0,0.0,81,0.00,,,0.00,WUHU216HW,2013-06-24 09:58:00,
2013-06-24 06:03:00,70.8,64.7,30.36,SW,225,0.0,0.0,81,0.00,,,0.00,WUHU216HW,2013-06-24 10:03:00,
2013-06-24 06:08:00,70.8,64.7,30.36,SW,225,0.0,0.0,81,0.00,,,0.00,WUHU216HW,2013-06-24 10:08:00,
2013-06-24 06:13:00,70.8,65.0,30.36,SW,225,0.0,0.0,82,0.00,,,0.00,WUHU216HW,2013-06-24 10:13:00,
2013-06-24 06:18:00,70.7,64.5,30.36,SW,225,0.0,0.0,81,0.00,,,0.00,WUHU216HW,2013-06-24 10:18:00,
2013-06-24 06:23:00,70.7,64.9,30.37,SW,225,0.0,0.0,82,0.00,,,0.00,WUHU216HW,2013-06-24 10:23:00,
2013-06-24 06:28:00,70.7,64.9,30.37,SW,225,0.0,0.0,82,0.00,,,0.00,WUHU216HW,2013-06-24 10:28:00,
2013-06-24 06:33:00,70.7,64.9,30.37,SW,225,0.0,0.0,82,0.00,,,0.00,WUHU216HW,2013-06-24 10:33:00,
2013-06-24 06:39:00,70.7,64.9,30.37,SW,225,0.0,0.0,82,0.00,,,0.00,WUHU216HW,2013-06-24 10:39:00,
2013-06-24 06:44:00,70.5,64.7,30.37,SW,225,0.0,0.0,82,0.00,,,0.00,WUHU216HW,2013-06-24 10:44:00,
2013-06-24 06:49:00,70.5,64.7,30.37,SW,225,0.0,0.0,82,0.00,,,0.00,WUHU216HW,2013-06-24 10:49:00,
2013-06-24 06:54:00,70.5,64.7,30.37,SW,225,0.0,0.0,82,0.00,,,0.00,WUHU216HW,2013-06-24 10:54:00,
2013-06-24 06:59:00,70.5,65.0,30.37,SW,225,0.0,0.0,83,0.00,,,0.00,WUHU216HW,2013-06-24 10:59:00,
2013-06-24 07:04:00,70.5,65.0,30.37,SW,225,0.0,0.0,83,0.00,,,0.00,WUHU216HW,2013-06-24 11:04:00,
2013-06-24 07:10:00,70.5,65.0,30.37,SW,225,0.0,0.0,83,0.00,,,0.00,WUHU216HW,2013-06-24 11:10:00,
2013-06-24 07:15:00,70.5,65.0,30.37,SW,225,0.0,0.0,83,0.00,,,0.00,WUHU216HW,2013-06-24 11:15:00,
2013-06-24 07:20:00,70.5,65.0,30.37,SW,225,0.0,0.0,83,0.00,,,0.00,WUHU216HW,2013-06-24 11:20:00,
2013-06-24 07:25:00,70.5,65.0,30.36,SW,225,0.0,0.0,83,0.00,,,0.00,WUHU216HW,2013-06-24 11:25:00,
2013-06-24 07:30:00,70.7,65.2,30.37,SW,225,0.0,0.0,83,0.00,,,0.00,WUHU216HW,2013-06-24 11:30:00,
2013-06-24 07:35:00,70.7,65.2,30.37,SW,225,0.0,0.2,83,0.00,,,0.00,WUHU216HW,2013-06-24 11:35:00,
2013-06-24 07:40:00,70.8,65.4,30.37,SW,225,2.0,2.0,83,0.00,,,0.00,WUHU216HW,2013-06-24 11:40:00,
2013-06-24 07:45:00,70.8,65.4,30.37,SW,225,0.0,2.0,83,0.00,,,0.00,WUHU216HW,2013-06-24 11:45:00,
2013-06-24 07:50:00,71.2,65.7,30.37,SW,225,1.3,1.3,83,0.00,,,0.00,WUHU216HW,2013-06-24 11:50:00,
2013-06-24 07:55:00,71.2,65.4,30.37,WSW,248,0.0,1.3,82,0.00,,,0.00,WUHU216HW,2013-06-24 11:55:00,
2013-06-24 08:00:00,71.2,65.7,30.37,SW,225,1.7,1.7,83,0.00,,,0.00,WUHU216HW,2013-06-24 12:00:00,
2013-06-24 08:05:00,71.2,65.4,30.38,SW,225,0.6,1.7,82,0.00,,,0.00,WUHU216HW,2013-06-24 12:05:00,
2013-06-24 08:11:00,71.4,65.6,30.38,WSW,248,2.4,2.4,82,0.00,,,0.00,WUHU216HW,2013-06-24 12:11:00,
2013-06-24 08:16:00,71.6,65.8,30.38,WSW,248,3.3,3.3,82,0.00,,,0.00,WUHU216HW,2013-06-24 12:16:00,
2013-06-24 08:22:00,71.7,65.9,30.38,SW,225,0.0,3.3,82,0.00,,,0.00,WUHU216HW,2013-06-24 12:22:00,
2013-06-24 08:27:00,71.7,65.9,30.37,WSW,248,0.0,2.4,82,0.00,,,0.00,WUHU216HW,2013-06-24 12:27:00,
2013-06-24 08:32:00,72.1,66.3,30.37,WSW,248,2.4,2.4,82,0.00,,,0.00,WUHU216HW,2013-06-24 12:32:00,
2013-06-24 08:37:00,72.1,66.3,30.37,WSW,248,2.2,2.4,82,0.00,,,0.00,WUHU216HW,2013-06-24 12:37:00,
2013-06-24 08:42:00,72.3,66.5,30.37,WSW,248,0.8,2.9,82,0.00,,,0.00,WUHU216HW,2013-06-24 12:42:00,
2013-06-24 08:48:00,72.5,66.7,30.37,SW,225,1.3,2.9,82,0.00,,,0.00,WUHU216HW,2013-06-24 12:48:00,
2013-06-24 08:53:00,72.6,66.5,30.38,SW,225,0.0,1.5,81,0.00,,,0.00,WUHU216HW,2013-06-24 12:53:00,
2013-06-24 08:58:00,72.8,66.7,30.38,SW,225,4.0,4.0,81,0.00,,,0.00,WUHU216HW,2013-06-24 12:58:00,
2013-06-24 09:03:00,73.0,66.9,30.38,WSW,248,4.9,5.8,81,0.00,,,0.00,WUHU216HW,2013-06-24 13:03:00,
2013-06-24 09:08:00,73.4,66.7,30.38,WSW,248,3.5,5.8,80,0.00,,,0.00,WUHU216HW,2013-06-24 13:08:00,
2013-06-24 09:14:00,73.5,67.1,30.38,SW,225,1.7,3.5,80,0.00,,,0.00,WUHU216HW,2013-06-24 13:14:00,
2013-06-24 09:18:00,73.9,67.4,30.38,SW,225,0.0,3.8,80,0.00,,,0.00,WUHU216HW,2013-06-24 13:18:00,
2013-06-24 09:24:00,73.9,67.4,30.38,WSW,248,5.1,5.1,80,0.00,,,0.00,WUHU216HW,2013-06-24 13:24:00,
2013-06-24 09:29:00,74.1,67.6,30.38,WSW,248,2.9,5.1,80,0.00,,,0.00,WUHU216HW,2013-06-24 13:29:00,
2013-06-24 09:34:00,74.3,67.4,30.38,WSW,248,0.0,6.0,79,0.00,,,0.00,WUHU216HW,2013-06-24 13:34:00,
2013-06-24 09:39:00,74.4,67.6,30.38,SW,225,2.9,6.0,79,0.00,,,0.00,WUHU216HW,2013-06-24 13:39:00,
2013-06-24 09:44:00,74.8,67.9,30.38,WSW,248,5.3,5.3,79,0.00,,,0.00,WUHU216HW,2013-06-24 13:44:00,
2013-06-24 09:49:00,75.0,68.1,30.39,WSW,248,2.4,5.5,79,0.00,,,0.00,WUHU216HW,2013-06-24 13:49:00,
2013-06-24 09:54:00,75.3,68.0,30.38,SW,225,0.4,5.5,78,0.00,,,0.00,WUHU216HW,2013-06-24 13:54:00,
2013-06-24 09:59:00,75.5,68.2,30.39,WSW,248,5.1,5.1,78,0.00,,,0.00,WUHU216HW,2013-06-24 13:59:00,
2013-06-24 10:04:00,75.5,67.8,30.38,SW,225,0.0,5.1,77,0.00,,,0.00,WUHU216HW,2013-06-24 14:04:00,
2013-06-24 10:09:00,75.7,68.0,30.38,WSW,248,5.1,5.1,77,0.00,,,0.00,WUHU216HW,2013-06-24 14:09:00,
2013-06-24 10:14:00,75.9,68.1,30.39,WSW,248,5.5,5.5,77,0.00,,,0.00,WUHU216HW,2013-06-24 14:14:00,
2013-06-24 10:19:00,75.9,68.1,30.39,SW,225,4.2,5.5,77,0.00,,,0.00,WUHU216HW,2013-06-24 14:19:00,
2013-06-24 10:24:00,76.1,67.8,30.39,SW,225,0.0,6.4,77,0.00,,,0.00,WUHU216HW,2013-06-24 14:24:00,
2013-06-24 10:30:00,75.9,68.1,30.39,SW,225,3.8,6.4,77,0.00,,,0.00,WUHU216HW,2013-06-24 14:30:00,
2013-06-24 10:35:00,75.9,67.8,30.39,SW,225,0.0,3.8,76,0.00,,,0.00,WUHU216HW,2013-06-24 14:35:00,
2013-06-24 10:40:00,75.9,68.1,30.39,WSW,248,4.0,4.0,77,0.00,,,0.00,WUHU216HW,2013-06-24 14:40:00,
2013-06-24 10:45:00,76.1,68.3,30.38,WSW,248,0.8,4.0,77,0.00,,,0.00,WUHU216HW,2013-06-24 14:45:00,
2013-06-24 10:50:00,76.2,68.5,30.39,SW,225,0.0,4.0,77,0.00,,,0.00,WUHU216HW,2013-06-24 14:50:00,
2013-06-24 10:56:00,76.2,68.5,30.38,WSW,248,4.4,5.5,77,0.00,,,0.00,WUHU216HW,2013-06-24 14:56:00,
2013-06-24 11:01:00,76.6,68.8,30.39,WSW,248,5.3,6.2,77,0.00,,,0.00,WUHU216HW,2013-06-24 15:01:00,
2013-06-24 11:06:00,76.6,68.4,30.38,WSW,248,5.8,6.2,76,0.00,,,0.00,WUHU216HW,2013-06-24 15:06:00,
2013-06-24 11:11:00,76.6,68.4,30.38,WSW,248,4.6,5.8,76,0.00,,,0.00,WUHU216HW,2013-06-24 15:11:00,
2013-06-24 11:16:00,76.6,68.4,30.38,SW,225,0.6,5.8,76,0.00,,,0.00,WUHU216HW,2013-06-24 15:16:00,
2013-06-24 11:21:00,77.0,68.8,30.39,WSW,248,4.9,6.2,76,0.00,,,0.00,WUHU216HW,2013-06-24 15:21:00,
2013-06-24 11:26:00,77.1,68.9,30.39,SW,225,0.0,6.2,76,0.00,,,0.00,WUHU216HW,2013-06-24 15:26:00,
2013-06-24 11:31:00,77.5,68.9,30.39,WSW,248,4.6,5.8,75,0.00,,,0.00,WUHU216HW,2013-06-24 15:31:00,
2013-06-24 11:36:00,77.5,68.9,30.40,WSW,248,5.1,5.8,75,0.00,,,0.00,WUHU216HW,2013-06-24 15:36:00,
2013-06-24 11:41:00,78.0,69.4,30.39,WSW,248,3.3,5.5,75,0.00,,,0.00,WUHU216HW,2013-06-24 15:41:00,
2013-06-24 11:46:00,78.2,69.2,30.39,WSW,248,0.8,5.5,74,0.00,,,0.00,WUHU216HW,2013-06-24 15:46:00,
2013-06-24 11:52:00,78.6,69.5,30.39,SW,225,1.3,4.9,74,0.00,,,0.00,WUHU216HW,2013-06-24 15:52:00,
2013-06-24 11:57:00,79.3,69.9,30.39,WSW,248,5.3,5.3,73,0.00,,,0.00,WUHU216HW,2013-06-24 15:57:00,
2013-06-24 12:02:00,79.7,69.8,30.39,SW,225,5.8,5.8,72,0.00,,,0.00,WUHU216HW,2013-06-24 16:02:00,
2013-06-24 12:07:00,80.4,70.9,30.38,WSW,248,4.4,5.8,73,0.00,,,0.00,WUHU216HW,2013-06-24 16:07:00,
2013-06-24 12:12:00,80.7,70.5,30.38,SW,225,0.0,5.8,71,0.00,,,0.00,WUHU216HW,2013-06-24 16:12:00,
2013-06-24 12:17:00,81.3,71.0,30.38,SW,225,0.0,2.4,71,0.00,,,0.00,WUHU216HW,2013-06-24 16:17:00,
2013-06-24 12:22:00,82.5,71.3,30.38,SW,225,2.6,2.6,69,0.00,,,0.00,WUHU216HW,2013-06-24 16:22:00,
2013-06-24 12:27:00,83.3,71.6,30.38,SW,225,0.0,2.6,68,0.00,,,0.00,WUHU216HW,2013-06-24 16:27:00,
2013-06-24 12:32:00,84.0,72.3,30.38,WSW,248,0.6,2.6,68,0.00,,,0.00,WUHU216HW,2013-06-24 16:32:00,
2013-06-24 12:38:00,84.9,72.2,30.37,SW,225,0.0,2.4,66,0.00,,,0.00,WUHU216HW,2013-06-24 16:38:00,
2013-06-24 12:43:00,85.6,72.5,30.37,WSW,248,3.3,4.2,65,0.00,,,0.00,WUHU216HW,2013-06-24 16:43:00,
2013-06-24 12:48:00,86.1,72.5,30.37,SSW,203,0.0,4.2,64,0.00,,,0.00,WUHU216HW,2013-06-24 16:48:00,
2013-06-24 12:53:00,86.7,72.6,30.37,WSW,248,2.9,3.3,63,0.00,,,0.00,WUHU216HW,2013-06-24 16:53:00,
2013-06-24 12:58:00,87.0,72.5,30.37,SW,225,3.8,6.0,62,0.00,,,0.00,WUHU216HW,2013-06-24 16:58:00,
2013-06-24 13:03:00,87.4,72.8,30.37,WSW,248,0.6,6.0,62,0.00,,,0.00,WUHU216HW,2013-06-24 17:03:00,
2013-06-24 13:09:00,87.6,72.5,30.37,SW,225,5.8,5.8,61,0.00,,,0.00,WUHU216HW,2013-06-24 17:09:00,
2013-06-24 13:14:00,87.9,72.4,30.36,SW,225,0.0,5.8,60,0.00,,,0.00,WUHU216HW,2013-06-24 17:14:00,
2013-06-24 13:19:00,88.3,72.8,30.36,SW,225,1.7,5.3,60,0.00,,,0.00,WUHU216HW,2013-06-24 17:19:00,
2013-06-24 13:24:00,88.3,72.2,30.36,WSW,248,6.4,6.4,59,0.00,,,0.00,WUHU216HW,2013-06-24 17:24:00,
2013-06-24 13:29:00,88.5,72.4,30.36,WSW,248,5.3,6.4,59,0.00,,,0.00,WUHU216HW,2013-06-24 17:29:00,
2013-06-24 13:34:00,88.8,72.7,30.36,SW,225,0.0,6.4,59,0.00,,,0.00,WUHU216HW,2013-06-24 17:34:00,
2013-06-24 13:40:00,88.7,72.5,30.36,WSW,248,4.2,6.4,59,0.00,,,0.00,WUHU216HW,2013-06-24 17:40:00,
2013-06-24 13:45:00,88.7,72.5,30.36,WSW,248,8.5,8.5,59,0.00,,,0.00,WUHU216HW,2013-06-24 17:45:00,
2013-06-24 13:50:00,88.7,72.5,30.37,WSW,248,8.5,8.5,59,0.00,,,0.00,WUHU216HW,2013-06-24 17:50:00,
2013-06-24 13:55:00,88.7,72.5,30.36,WSW,248,8.5,8.5,59,0.00,,,0.00,WUHU216HW,2013-06-24 17:55:00,
2013-06-24 14:00:00,88.7,72.5,30.36,WSW,248,8.5,8.5,59,0.00,,,0.00,WUHU216HW,2013-06-24 18:00:00,
2013-06-24 14:05:00,88.7,72.5,30.36,WSW,248,8.5,8.5,59,0.00,,,0.00,WUHU216HW,2013-06-24 18:05:00,
2013-06-24 14:24:00,87.0,70.5,30.35,WSW,248,7.1,7.1,58,0.00,,,0.00,WUHU216HW,2013-06-24 18:24:00,
2013-06-24 14:29:00,87.0,70.5,30.34,WSW,248,6.2,7.1,58,0.00,,,0.00,WUHU216HW,2013-06-24 18:29:00,
2013-06-24 14:34:00,87.0,70.5,30.34,WSW,248,6.2,7.1,58,0.00,,,0.00,WUHU216HW,2013-06-24 18:34:00,
2013-06-24 14:39:00,87.4,71.4,30.34,SW,225,6.4,6.4,59,0.00,,,0.00,WUHU216HW,2013-06-24 18:39:00,
2013-06-24 14:44:00,87.6,71.0,30.33,SW,225,0.0,6.4,58,0.00,,,0.00,WUHU216HW,2013-06-24 18:44:00,
2013-06-24 14:49:00,87.6,71.0,30.33,SW,225,0.0,6.4,58,0.00,,,0.00,WUHU216HW,2013-06-24 18:49:00,
2013-06-24 14:54:00,87.6,71.0,30.33,SW,225,0.0,0.0,58,0.00,,,0.00,WUHU216HW,2013-06-24 18:54:00,
2013-06-24 15:37:00,88.1,70.4,30.31,WSW,248,3.1,3.1,56,0.00,,,0.00,WUHU216HW,2013-06-24 19:37:00,
2013-06-24 15:42:00,88.1,70.4,30.31,WSW,248,7.3,7.3,56,0.00,,,0.00,WUHU216HW,2013-06-24 19:42:00,
2013-06-24 15:47:00,87.9,70.8,30.31,WSW,248,6.2,7.3,57,0.00,,,0.00,WUHU216HW,2013-06-24 19:47:00,
2013-06-24 15:52:00,87.9,70.3,30.31,SW,225,2.6,6.2,56,0.00,,,0.00,WUHU216HW,2013-06-24 19:52:00,
2013-06-24 15:57:00,87.8,70.1,30.31,WSW,248,5.3,5.5,56,0.00,,,0.00,WUHU216HW,2013-06-24 19:57:00,
2013-06-24 16:02:00,87.9,70.3,30.31,WSW,248,4.9,5.5,56,0.00,,,0.00,WUHU216HW,2013-06-24 20:02:00,
2013-06-24 16:07:00,87.6,70.5,30.31,SW,225,6.9,6.9,57,0.00,,,0.00,WUHU216HW,2013-06-24 20:07:00,
2013-06-24 16:12:00,87.6,69.9,30.30,WSW,248,6.2,6.9,56,0.00,,,0.00,WUHU216HW,2013-06-24 20:12:00,
2013-06-24 16:18:00,87.6,69.9,30.30,WSW,248,5.5,6.9,56,0.00,,,0.00,WUHU216HW,2013-06-24 20:18:00,
2013-06-24 16:23:00,87.4,69.8,30.30,WSW,248,5.8,6.0,56,0.00,,,0.00,WUHU216HW,2013-06-24 20:23:00,
2013-06-24 16:28:00,87.6,69.9,30.30,WSW,248,5.5,7.3,56,0.00,,,0.00,WUHU216HW,2013-06-24 20:28:00,
2013-06-24 16:33:00,87.4,69.8,30.30,WSW,248,7.6,7.6,56,0.00,,,0.00,WUHU216HW,2013-06-24 20:33:00,
2013-06-24 16:39:00,87.0,69.4,30.30,WSW,248,8.2,8.2,56,0.00,,,0.00,WUHU216HW,2013-06-24 20:39:00,
2013-06-24 16:44:00,87.0,69.9,30.30,SW,225,0.6,8.2,57,0.00,,,0.00,WUHU216HW,2013-06-24 20:44:00,
2013-06-24 16:49:00,86.9,69.2,30.30,SW,225,5.1,8.2,56,0.00,,,0.00,WUHU216HW,2013-06-24 20:49:00,
2013-06-24 16:54:00,86.9,69.2,30.29,SW,225,5.8,5.8,56,0.00,,,0.00,WUHU216HW,2013-06-24 20:54:00,
2013-06-24 16:59:00,86.7,69.1,30.29,WSW,248,5.1,6.2,56,0.00,,,0.00,WUHU216HW,2013-06-24 20:59:00,
2013-06-24 17:05:00,86.5,68.4,30.28,WSW,248,5.1,6.0,55,0.00,,,0.00,WUHU216HW,2013-06-24 21:05:00,
2013-06-24 17:10:00,86.3,68.2,30.28,WSW,248,6.2,6.4,55,0.00,,,0.00,WUHU216HW,2013-06-24 21:10:00,
2013-06-24 17:15:00,86.3,68.2,30.28,WSW,248,4.0,6.4,55,0.00,,,0.00,WUHU216HW,2013-06-24 21:15:00,
2013-06-24 17:20:00,86.5,68.4,30.27,WSW,248,4.6,5.8,55,0.00,,,0.00,WUHU216HW,2013-06-24 21:20:00,
2013-06-24 17:25:00,86.3,68.2,30.27,WSW,248,5.1,5.8,55,0.00,,,0.00,WUHU216HW,2013-06-24 21:25:00,
2013-06-24 17:31:00,86.5,68.4,30.27,WSW,248,5.8,6.0,55,0.00,,,0.00,WUHU216HW,2013-06-24 21:31:00,
2013-06-24 17:36:00,86.1,68.0,30.28,WSW,248,5.8,7.8,55,0.00,,,0.00,WUHU216HW,2013-06-24 21:36:00,
2013-06-24 17:41:00,86.1,68.0,30.28,WSW,248,4.2,7.8,55,0.00,,,0.00,WUHU216HW,2013-06-24 21:41:00,
2013-06-24 17:46:00,85.8,68.2,30.28,WSW,248,6.7,6.7,56,0.00,,,0.00,WUHU216HW,2013-06-24 21:46:00,
2013-06-24 17:51:00,85.8,68.2,30.28,SW,225,8.2,8.2,56,0.00,,,0.00,WUHU216HW,2013-06-24 21:51:00,
2013-06-24 17:56:00,85.8,68.2,30.28,WSW,248,5.8,8.2,56,0.00,,,0.00,WUHU216HW,2013-06-24 21:56:00,
2013-06-24 18:01:00,85.8,68.2,30.28,SW,225,8.2,8.2,56,0.00,,,0.00,WUHU216HW,2013-06-24 22:01:00,
2013-06-24 18:06:00,85.8,68.2,30.28,SW,225,5.8,8.2,56,0.00,,,0.00,WUHU216HW,2013-06-24 22:06:00,
2013-06-24 18:12:00,85.6,68.1,30.28,SW,225,0.8,6.4,56,0.00,,,0.00,WUHU216HW,2013-06-24 22:12:00,
2013-06-24 18:17:00,85.6,68.1,30.28,WSW,248,6.2,6.4,56,0.00,,,0.00,WUHU216HW,2013-06-24 22:17:00,
2013-06-24 18:22:00,85.4,67.9,30.29,WSW,248,4.4,6.2,56,0.00,,,0.00,WUHU216HW,2013-06-24 22:22:00,
2013-06-24 18:27:00,85.1,67.6,30.29,WSW,248,5.5,6.7,56,0.00,,,0.00,WUHU216HW,2013-06-24 22:27:00,
2013-06-24 18:32:00,85.1,68.1,30.29,WSW,248,3.5,6.7,57,0.00,,,0.00,WUHU216HW,2013-06-24 22:32:00,
2013-06-24 18:37:00,85.1,68.1,30.29,WSW,248,5.8,5.8,57,0.00,,,0.00,WUHU216HW,2013-06-24 22:37:00,
2013-06-24 18:42:00,84.9,67.9,30.28,SW,225,5.5,6.0,57,0.00,,,0.00,WUHU216HW,2013-06-24 22:42:00,
2013-06-24 18:47:00,84.7,67.8,30.29,WSW,248,4.0,6.2,57,0.00,,,0.00,WUHU216HW,2013-06-24 22:47:00,
2013-06-24 18:52:00,84.5,68.1,30.29,WSW,248,2.9,6.2,58,0.00,,,0.00,WUHU216HW,2013-06-24 22:52:00,
2013-06-24 18:57:00,84.3,67.4,30.29,WSW,248,4.2,6.4,57,0.00,,,0.00,WUHU216HW,2013-06-24 22:57:00,
2013-06-24 19:02:00,84.3,68.0,30.29,SW,225,0.0,6.4,58,0.00,,,0.00,WUHU216HW,2013-06-24 23:02:00,
2013-06-24 19:07:00,84.0,67.1,30.29,SW,225,4.4,5.3,57,0.00,,,0.00,WUHU216HW,2013-06-24 23:07:00,
2013-06-24 19:13:00,84.0,67.1,30.29,SW,225,5.8,6.2,57,0.00,,,0.00,WUHU216HW,2013-06-24 23:13:00,
2013-06-24 19:18:00,83.6,66.7,30.29,WSW,248,4.9,6.2,57,0.00,,,0.00,WUHU216HW,2013-06-24 23:18:00,
2013-06-24 19:23:00,83.3,66.4,30.29,WSW,248,0.0,6.2,57,0.00,,,0.00,WUHU216HW,2013-06-24 23:23:00,
2013-06-24 19:28:00,83.3,66.4,30.29,WSW,248,1.1,4.2,57,0.00,,,0.00,WUHU216HW,2013-06-24 23:28:00,
2013-06-24 19:33:00,83.1,66.7,30.29,WSW,248,3.3,3.3,58,0.00,,,0.00,WUHU216HW,2013-06-24 23:33:00,
2013-06-24 19:38:00,82.9,66.5,30.29,WSW,248,2.4,4.0,58,0.00,,,0.00,WUHU216HW,2013-06-24 23:38:00,
2013-06-24 19:44:00,82.9,66.5,30.29,WSW,248,2.9,4.0,58,0.00,,,0.00,WUHU216HW,2013-06-24 23:44:00,
2013-06-24 19:49:00,82.7,66.4,30.29,WSW,248,2.0,3.5,58,0.00,,,0.00,WUHU216HW,2013-06-24 23:49:00,
2013-06-24 19:54:00,82.5,66.7,30.29,WSW,248,3.3,5.8,59,0.00,,,0.00,WUHU216HW,2013-06-24 23:54:00,
2013-06-24 19:59:00,82.5,66.7,30.29,WSW,248,5.1,5.8,59,0.00,,,0.00,WUHU216HW,2013-06-24 23:59:00,
2013-06-24 20:04:00,82.2,66.4,30.29,SW,225,1.3,5.1,59,0.00,,,0.00,WUHU216HW,2013-06-25 00:04:00,
2013-06-24 20:10:00,82.0,66.2,30.29,WSW,248,2.0,2.2,59,0.00,,,0.00,WUHU216HW,2013-06-25 00:10:00,
2013-06-24 20:15:00,82.0,66.2,30.29,SW,225,2.0,3.1,59,0.00,,,0.00,WUHU216HW,2013-06-25 00:15:00,
2013-06-24 20:20:00,81.8,66.0,30.28,WSW,248,2.4,3.1,59,0.00,,,0.00,WUHU216HW,2013-06-25 00:20:00,
2013-06-24 20:25:00,81.6,65.9,30.28,WSW,248,3.3,3.3,59,0.00,,,0.00,WUHU216HW,2013-06-25 00:25:00,
2013-06-24 20:30:00,81.5,65.7,30.28,WSW,248,0.0,3.3,59,0.00,,,0.00,WUHU216HW,2013-06-25 00:30:00,
2013-06-24 20:35:00,81.1,65.4,30.28,SW,225,0.8,4.0,59,0.00,,,0.00,WUHU216HW,2013-06-25 00:35:00,
2013-06-24 20:40:00,80.9,65.8,30.28,SW,225,0.0,4.0,60,0.00,,,0.00,WUHU216HW,2013-06-25 00:40:00,
2013-06-24 20:45:00,80.7,65.6,30.28,SW,225,0.0,0.8,60,0.00,,,0.00,WUHU216HW,2013-06-25 00:45:00,
2013-06-24 20:50:00,80.4,65.3,30.28,SW,225,0.0,0.0,60,0.00,,,0.00,WUHU216HW,2013-06-25 00:50:00,
2013-06-24 20:55:00,80.4,65.3,30.28,WSW,248,2.4,3.8,60,0.00,,,0.00,WUHU216HW,2013-06-25 00:55:00,
2013-06-24 21:01:00,80.2,65.1,30.28,WSW,248,3.5,3.8,60,0.00,,,0.00,WUHU216HW,2013-06-25 01:01:00,
2013-06-24 21:06:00,79.8,64.3,30.28,SW,225,1.1,3.5,59,0.00,,,0.00,WUHU216HW,2013-06-25 01:06:00,
2013-06-24 21:11:00,79.7,64.1,30.27,SW,225,0.0,3.5,59,0.00,,,0.00,WUHU216HW,2013-06-25 01:11:00,
2013-06-24 21:16:00,79.5,63.9,30.27,SW,225,2.0,3.8,59,0.00,,,0.00,WUHU216HW,2013-06-25 01:16:00,
2013-06-24 21:22:00,79.3,63.8,30.27,SW,225,2.2,3.8,59,0.00,,,0.00,WUHU216HW,2013-06-25 01:22:00,
2013-06-24 21:27:00,78.9,63.5,30.27,SW,225,3.1,6.0,59,0.00,,,0.00,WUHU216HW,2013-06-25 01:27:00,
2013-06-24 21:32:00,78.9,63.5,30.27,WSW,248,3.5,6.0,59,0.00,,,0.00,WUHU216HW,2013-06-25 01:32:00,
2013-06-24 21:37:00,78.6,63.1,30.27,WSW,248,0.8,3.5,59,0.00,,,0.00,WUHU216HW,2013-06-25 01:37:00,
2013-06-24 21:42:00,78.6,63.1,30.27,WSW,248,1.7,3.3,59,0.00,,,0.00,WUHU216HW,2013-06-25 01:42:00,
2013-06-24 21:47:00,78.4,62.9,30.27,WSW,248,0.0,2.9,59,0.00,,,0.00,WUHU216HW,2013-06-25 01:47:00,
2013-06-24 21:53:00,78.0,62.6,30.27,SW,225,0.0,1.3,59,0.00,,,0.00,WUHU216HW,2013-06-25 01:53:00,
2013-06-24 21:58:00,78.0,62.6,30.27,SW,225,1.5,1.5,59,0.00,,,0.00,WUHU216HW,2013-06-25 01:58:00,
2013-06-24 22:03:00,77.9,62.4,30.27,WSW,248,5.1,5.1,59,0.00,,,0.00,WUHU216HW,2013-06-25 02:03:00,
2013-06-24 22:08:00,77.7,62.2,30.27,SW,225,2.0,5.1,59,0.00,,,0.00,WUHU216HW,2013-06-25 02:08:00,
2013-06-24 22:13:00,77.5,62.0,30.28,WSW,248,0.6,3.8,59,0.00,,,0.00,WUHU216HW,2013-06-25 02:13:00,
2013-06-24 22:18:00,77.3,62.4,30.28,SW,225,1.3,1.5,60,0.00,,,0.00,WUHU216HW,2013-06-25 02:18:00,
2013-06-24 22:23:00,77.1,62.2,30.28,SW,225,0.0,1.3,60,0.00,,,0.00,WUHU216HW,2013-06-25 02:23:00,
2013-06-24 22:29:00,76.8,62.3,30.27,SW,225,0.0,1.3,61,0.00,,,0.00,WUHU216HW,2013-06-25 02:29:00,
2013-06-24 22:34:00,76.6,62.1,30.27,SW,225,0.0,0.0,61,0.00,,,0.00,WUHU216HW,2013-06-25 02:34:00,
2013-06-24 22:39:00,76.2,62.2,30.28,SW,225,0.0,0.0,62,0.00,,,0.00,WUHU216HW,2013-06-25 02:39:00,
2013-06-24 22:44:00,75.7,62.2,30.28,SW,225,0.0,0.0,63,0.00,,,0.00,WUHU216HW,2013-06-25 02:44:00,
2013-06-24 22:50:00,75.3,61.8,30.28,SW,225,0.0,0.0,63,0.00,,,0.00,WUHU216HW,2013-06-25 02:50:00,
2013-06-24 22:55:00,74.8,61.8,30.27,SW,225,0.0,0.0,64,0.00,,,0.00,WUHU216HW,2013-06-25 02:55:00,
2013-06-24 23:00:00,74.4,61.4,30.27,SW,225,0.0,0.0,64,0.00,,,0.00,WUHU216HW,2013-06-25 03:00:00,
2013-06-24 23:05:00,73.9,61.3,30.27,SW,225,0.0,0.0,65,0.00,,,0.00,WUHU216HW,2013-06-25 03:05:00,
2013-06-24 23:10:00,73.4,60.8,30.26,SW,225,0.0,0.0,65,0.00,,,0.00,WUHU216HW,2013-06-25 03:10:00,
2013-06-24 23:16:00,73.0,60.5,30.26,SW,225,0.0,0.0,65,0.00,,,0.00,WUHU216HW,2013-06-25 03:16:00,
2013-06-24 23:22:00,72.6,61.0,30.26,SW,225,0.0,0.0,67,0.00,,,0.00,WUHU216HW,2013-06-25 03:22:00,
2013-06-24 23:28:00,72.3,60.7,30.26,SW,225,0.0,0.0,67,0.00,,,0.00,WUHU216HW,2013-06-25 03:28:00,
2013-06-24 23:33:00,72.1,60.9,30.27,SW,225,0.0,0.0,68,0.00,,,0.00,WUHU216HW,2013-06-25 03:33:00,
2013-06-24 23:38:00,71.7,60.6,30.27,SW,225,0.0,0.0,68,0.00,,,0.00,WUHU216HW,2013-06-25 03:38:00,
2013-06-24 23:43:00,71.4,60.2,30.26,SW,225,0.0,0.0,68,0.00,,,0.00,WUHU216HW,2013-06-25 03:43:00,
2013-06-24 23:49:00,71.2,60.5,30.27,SW,225,0.0,0.0,69,0.00,,,0.00,WUHU216HW,2013-06-25 03:49:00,
2013-06-24 23:54:00,70.8,60.1,30.27,SW,225,0.0,0.0,69,0.00,,,0.00,WUHU216HW,2013-06-25 03:54:00,
2013-06-24 23:59:00,70.5,60.2,30.27,SW,225,0.0,0.0,70,0.00,,,0.00,WUHU216HW,2013-06-25 03:59:00,